When you browse on this site, cookies collect data to enhance your experience and personalize the content and advertising you see.
Visit our Privacy Policy to learn more. By continuing to use the site, you agree to this use of cookies and data.
  • En España
  • Lista de países
  • Para 7 días
  • Temperatura del agua
  • Mapa Satelital
  • El tiempo en el mapa
  • Informadores
  • user-avatar
    Iniciar sesión

    Tiempo cada hora Kavarna

    Hoy, 20 Noviembre, Martes

    Tiempo Temperatura Precipitaciones Viento Presión Humedad
    00:00 +1°C° 0 mm 6 mps 764 mmHg 87%
    01:00 +1°C° 0 mm 6 mps 764 mmHg 87%
    02:00 +1°C° 0 mm 5 mps 764 mmHg 87%
    03:00 +1°C° 0 mm 5 mps 765 mmHg 87%
    04:00 0°C° 0 mm 5 mps 765 mmHg 86%
    05:00 0°C° 0 mm 5 mps 765 mmHg 86%
    06:00 0°C° 0 mm 5 mps 765 mmHg 86%
    07:00 0°C° 0 mm 5 mps 766 mmHg 85%
    08:00 0°C° 0 mm 5 mps 766 mmHg 83%
    09:00 +1°C° 0 mm 5 mps 766 mmHg 78%
    10:00 +3°C° 0 mm 4 mps 766 mmHg 73%
    11:00 +4°C° 0 mm 4 mps 766 mmHg 68%
    12:00 +5°C° 0 mm 4 mps 766 mmHg 66%
    13:00 +6°C° 0 mm 4 mps 766 mmHg 64%
    14:00 +6°C° 0 mm 4 mps 766 mmHg 62%
    15:00 +6°C° 0 mm 4 mps 766 mmHg 65%
    16:00 +6°C° 0 mm 4 mps 766 mmHg 69%
    17:00 +5°C° 0 mm 3 mps 765 mmHg 72%
    18:00 +5°C° 0.1 mm 4 mps 765 mmHg 75%
    19:00 +5°C° 0.1 mm 4 mps 765 mmHg 77%
    20:00 +5°C° 0.1 mm 4 mps 765 mmHg 79%
    21:00 +6°C° 0.3 mm 4 mps 764 mmHg 82%
    22:00 +6°C° 0.3 mm 5 mps 764 mmHg 84%
    23:00 +6°C° 0.3 mm 5 mps 764 mmHg 87%

    Mañana, 21 Noviembre, Miércoles

    Tiempo Temperatura Precipitaciones Viento Presión Humedad
    00:00 +6°C° 0.6 mm 5 mps 764 mmHg 88%
    01:00 +5°C° 0.6 mm 6 mps 763 mmHg 89%
    02:00 +7°C° 0.6 mm 6 mps 763 mmHg 91%
    03:00 +7°C° 0.9 mm 6 mps 762 mmHg 91%
    04:00 +6°C° 0.9 mm 7 mps 762 mmHg 92%
    05:00 +6°C° 0.9 mm 7 mps 762 mmHg 93%
    06:00 +6°C° 1 mm 7 mps 761 mmHg 93%
    07:00 +8°C° 1 mm 7 mps 761 mmHg 93%
    08:00 +7°C° 1 mm 8 mps 761 mmHg 93%
    09:00 +7°C° 1.5 mm 8 mps 760 mmHg 93%
    10:00 +7°C° 1.5 mm 8 mps 760 mmHg 93%
    11:00 +9°C° 1.5 mm 8 mps 760 mmHg 93%
    12:00 +9°C° 1.5 mm 8 mps 760 mmHg 93%
    13:00 +9°C° 1.5 mm 8 mps 759 mmHg 93%
    14:00 +8°C° 1.5 mm 9 mps 759 mmHg 93%
    15:00 +8°C° 1.2 mm 9 mps 759 mmHg 92%
    16:00 +8°C° 1.2 mm 10 mps 759 mmHg 91%
    17:00 +7°C° 1.2 mm 10 mps 759 mmHg 91%
    18:00 +7°C° 1 mm 10 mps 759 mmHg 90%
    19:00 +7°C° 1 mm 10 mps 759 mmHg 90%
    20:00 +7°C° 1 mm 10 mps 760 mmHg 90%
    21:00 +7°C° 1.2 mm 10 mps 760 mmHg 90%
    22:00 +7°C° 1.2 mm 10 mps 760 mmHg 90%
    23:00 +7°C° 1.2 mm 9 mps 760 mmHg 90%

    Pasado mañana, 22 Noviembre, Jueves

    Tiempo Temperatura Precipitaciones Viento Presión Humedad
    00:00 +7°C° 0.9 mm 10 mps 760 mmHg 90%
    01:00 +7°C° 0.9 mm 10 mps 761 mmHg 89%
    02:00 +6°C° 0.9 mm 10 mps 761 mmHg 89%
    03:00 +6°C° 0.5 mm 10 mps 761 mmHg 88%
    04:00 +6°C° 0.5 mm 10 mps 761 mmHg 87%
    05:00 +6°C° 0.5 mm 10 mps 762 mmHg 86%
    06:00 +6°C° 0.4 mm 10 mps 762 mmHg 85%
    07:00 +5°C° 0.4 mm 10 mps 763 mmHg 84%
    08:00 +5°C° 0.4 mm 10 mps 763 mmHg 84%
    09:00 +5°C° 0.1 mm 9 mps 764 mmHg 82%
    10:00 +5°C° 0.1 mm 9 mps 764 mmHg 81%
    11:00 +3°C° 0.1 mm 9 mps 765 mmHg 80%
    12:00 +5°C° 0 mm 9 mps 765 mmHg 78%
    13:00 +5°C° 0 mm 9 mps 765 mmHg 76%
    14:00 +5°C° 0 mm 8 mps 765 mmHg 74%
    15:00 +4°C° 0 mm 8 mps 765 mmHg 73%
    16:00 +4°C° 0 mm 8 mps 766 mmHg 72%
    17:00 +2°C° 0 mm 8 mps 766 mmHg 71%
    18:00 +3°C° 0 mm 7 mps 766 mmHg 71%
    19:00 +3°C° 0 mm 7 mps 767 mmHg 70%
    20:00 +2°C° 0 mm 7 mps 767 mmHg 69%
    21:00 +2°C° 0 mm 6 mps 768 mmHg 70%
    22:00 +1°C° 0 mm 6 mps 768 mmHg 71%
    23:00 +1°C° 0 mm 6 mps 768 mmHg 73%

    23 Noviembre, Viernes

    Tiempo Temperatura Precipitaciones Viento Presión Humedad
    00:00 -1°C° 0 mm 6 mps 768 mmHg 74%
    01:00 -1°C° 0 mm 6 mps 768 mmHg 76%
    02:00 -1°C° 0 mm 6 mps 768 mmHg 78%
    03:00 -2°C° 0 mm 6 mps 768 mmHg 78%
    04:00 -2°C° 0 mm 6 mps 769 mmHg 78%
    05:00 -2°C° 0 mm 6 mps 769 mmHg 79%
    06:00 -2°C° 0 mm 6 mps 769 mmHg 78%
    07:00 -2°C° 0 mm 6 mps 770 mmHg 77%
    08:00 -2°C° 0 mm 6 mps 770 mmHg 76%
    09:00 0°C° 0 mm 5 mps 770 mmHg 70%
    10:00 +1°C° 0 mm 5 mps 770 mmHg 64%
    11:00 +2°C° 0 mm 5 mps 771 mmHg 59%
    12:00 +3°C° 0 mm 5 mps 771 mmHg 57%
    13:00 +3°C° 0 mm 5 mps 770 mmHg 55%
    14:00 +5°C° 0 mm 5 mps 770 mmHg 52%
    15:00 +3°C° 0 mm 5 mps 770 mmHg 56%
    16:00 +2°C° 0 mm 5 mps 771 mmHg 59%
    17:00 +2°C° 0 mm 5 mps 771 mmHg 62%
    18:00 +1°C° 0 mm 5 mps 771 mmHg 64%
    19:00 +1°C° 0 mm 5 mps 771 mmHg 65%
    20:00 +1°C° 0 mm 5 mps 771 mmHg 67%
    21:00 +1°C° 0 mm 4 mps 771 mmHg 68%
    22:00 0°C° 0 mm 4 mps 771 mmHg 69%
    23:00 0°C° 0 mm 4 mps 771 mmHg 70%

    24 Noviembre, Sábado

    Tiempo Temperatura Precipitaciones Viento Presión Humedad
    00:00 0°C° 0 mm 4 mps 771 mmHg 71%
    01:00 0°C° 0 mm 4 mps 771 mmHg 72%
    02:00 0°C° 0 mm 4 mps 771 mmHg 73%
    03:00 0°C° 0 mm 4 mps 770 mmHg 73%
    04:00 0°C° 0 mm 4 mps 770 mmHg 74%
    05:00 0°C° 0 mm 4 mps 770 mmHg 74%
    06:00 +1°C° 0 mm 3 mps 770 mmHg 75%
    07:00 +1°C° 0 mm 3 mps 770 mmHg 75%
    08:00 +1°C° 0 mm 3 mps 770 mmHg 75%
    09:00 +3°C° 0 mm 3 mps 770 mmHg 74%
    10:00 +4°C° 0 mm 3 mps 769 mmHg 73%
    11:00 +7°C° 0 mm 3 mps 769 mmHg 72%
    12:00 +7°C° 0 mm 2 mps 769 mmHg 71%
    13:00 +8°C° 0 mm 2 mps 768 mmHg 71%
    14:00 +8°C° 0 mm 2 mps 768 mmHg 71%
    15:00 +8°C° 0 mm 2 mps 767 mmHg 75%
    16:00 +8°C° 0 mm 1 mps 767 mmHg 79%
    17:00 +7°C° 0 mm 1 mps 767 mmHg 83%
    18:00 +7°C° 0 mm 1 mps 767 mmHg 84%
    19:00 +7°C° 0 mm 1 mps 767 mmHg 85%
    20:00 +7°C° 0 mm 1 mps 767 mmHg 86%
    21:00 +7°C° 0 mm 1 mps 766 mmHg 86%
    22:00 +6°C° 0 mm 2 mps 766 mmHg 86%
    23:00 +6°C° 0 mm 2 mps 766 mmHg 86%

    25 Noviembre, Domingo

    Tiempo Temperatura Precipitaciones Viento Presión Humedad
    00:00 +6°C° 0 mm 2 mps 766 mmHg 86%
    01:00 +6°C° 0 mm 2 mps 765 mmHg 86%
    02:00 +6°C° 0 mm 2 mps 765 mmHg 86%
    03:00 +6°C° 0 mm 2 mps 765 mmHg 86%
    04:00 +6°C° 0 mm 2 mps 764 mmHg 86%
    05:00 +5°C° 0 mm 3 mps 764 mmHg 86%
    06:00 +5°C° 0 mm 3 mps 764 mmHg 86%
    07:00 +5°C° 0 mm 3 mps 764 mmHg 86%
    08:00 +5°C° 0 mm 3 mps 764 mmHg 87%
    09:00 +6°C° 0 mm 4 mps 764 mmHg 80%
    10:00 +8°C° 0 mm 4 mps 763 mmHg 74%
    11:00 +9°C° 0 mm 5 mps 763 mmHg 68%
    12:00 +9°C° 0 mm 5 mps 763 mmHg 65%
    13:00 +10°C° 0 mm 5 mps 762 mmHg 62%
    14:00 +10°C° 0 mm 5 mps 761 mmHg 60%
    15:00 +9°C° 0 mm 5 mps 761 mmHg 63%
    16:00 +9°C° 0 mm 5 mps 761 mmHg 67%
    17:00 +8°C° 0 mm 5 mps 761 mmHg 71%
    18:00 +8°C° 0 mm 5 mps 761 mmHg 71%
    19:00 +7°C° 0 mm 5 mps 760 mmHg 72%
    20:00 +7°C° 0 mm 5 mps 760 mmHg 73%
    21:00 +7°C° 0 mm 5 mps 760 mmHg 73%
    22:00 +7°C° 0 mm 5 mps 760 mmHg 73%
    23:00 +7°C° 0 mm 5 mps 759 mmHg 73%
    Mostrar más